Time,TemperatureF,DewpointF,PressureIn,WindDirection,WindDirectionDegrees,WindSpeedMPH,WindSpeedGustMPH,Humidity,HourlyPrecipIn,Conditions,Clouds,dailyrainin,SoftwareType,DateUTC
2013-02-16 01:22:00,15.0,5.0,30.08,North,353,0.0,2.0,64,0.00,,,0.00,,2013-02-16 06:22:00,
2013-02-16 01:32:00,15.0,5.0,30.08,North,353,0.0,1.0,64,0.00,,,0.00,,2013-02-16 06:32:00,
2013-02-16 01:42:00,15.0,5.0,30.08,North,353,0.0,1.0,64,0.00,,,0.00,,2013-02-16 06:42:00,
2013-02-16 01:52:00,15.0,5.0,30.08,North,353,0.0,3.0,65,0.00,,,0.00,,2013-02-16 06:52:00,
2013-02-16 02:02:00,15.0,5.0,30.07,North,0,3.0,5.0,64,0.00,,,0.00,,2013-02-16 07:02:00,
2013-02-16 02:11:00,15.0,5.0,30.07,North,0,3.0,5.0,64,0.00,,,0.00,,2013-02-16 07:11:00,
2013-02-16 02:21:00,16.0,6.0,30.07,NNW,347,1.0,3.0,63,0.00,,,0.00,,2013-02-16 07:21:00,
2013-02-16 02:32:00,15.0,5.0,30.07,NNW,347,2.0,4.0,64,0.00,,,0.00,,2013-02-16 07:32:00,
2013-02-16 02:42:00,15.0,5.0,30.07,NNW,347,2.0,4.0,64,0.00,,,0.00,,2013-02-16 07:42:00,
2013-02-16 02:53:00,15.0,6.0,30.06,NNW,347,1.0,3.0,66,0.00,,,0.00,,2013-02-16 07:53:00,
2013-02-16 03:01:00,14.0,5.0,30.06,NNW,347,1.0,3.0,68,0.00,,,0.00,,2013-02-16 08:01:00,
2013-02-16 03:11:00,14.0,5.0,30.06,NNW,347,1.0,3.0,68,0.00,,,0.00,,2013-02-16 08:11:00,
2013-02-16 03:21:00,14.0,6.0,30.06,WSW,239,3.0,4.0,71,0.00,,,0.00,,2013-02-16 08:21:00,
2013-02-16 03:31:00,14.0,7.0,30.06,South,188,3.0,3.0,73,0.00,,,0.00,,2013-02-16 08:31:00,
2013-02-16 03:42:00,14.0,7.0,30.06,South,188,3.0,3.0,73,0.00,,,0.00,,2013-02-16 08:42:00,
2013-02-16 03:52:00,14.0,7.0,30.05,South,188,2.0,3.0,74,0.00,,,0.00,,2013-02-16 08:52:00,
2013-02-16 04:01:00,14.0,8.0,30.04,South,188,0.0,2.0,75,0.00,,,0.00,,2013-02-16 09:01:00,
2013-02-16 04:11:00,14.0,8.0,30.04,South,188,0.0,2.0,75,0.00,,,0.00,,2013-02-16 09:11:00,
2013-02-16 04:21:00,13.0,7.0,30.04,South,188,0.0,3.0,76,0.00,,,0.00,,2013-02-16 09:21:00,
2013-02-16 04:32:00,12.0,6.0,30.04,South,188,0.0,2.0,78,0.00,,,0.00,,2013-02-16 09:32:00,
2013-02-16 04:42:00,12.0,6.0,30.04,South,188,0.0,2.0,78,0.00,,,0.00,,2013-02-16 09:42:00,
2013-02-16 04:52:00,12.0,7.0,30.04,South,188,0.0,3.0,80,0.00,,,0.00,,2013-02-16 09:52:00,
2013-02-16 05:01:00,12.0,7.0,30.04,South,188,1.0,3.0,81,0.00,,,0.00,,2013-02-16 10:01:00,
2013-02-16 05:11:00,12.0,7.0,30.04,South,188,1.0,3.0,81,0.00,,,0.00,,2013-02-16 10:11:00,
2013-02-16 05:21:00,13.0,9.0,30.04,South,188,1.0,3.0,82,0.00,,,0.00,,2013-02-16 10:21:00,
2013-02-16 05:32:00,13.0,9.0,30.04,South,188,2.0,3.0,83,0.00,,,0.00,,2013-02-16 10:32:00,
2013-02-16 05:42:00,13.0,9.0,30.04,South,188,2.0,3.0,83,0.00,,,0.00,,2013-02-16 10:42:00,
2013-02-16 05:52:00,13.0,9.0,30.04,South,188,1.0,3.0,84,0.00,,,0.00,,2013-02-16 10:52:00,
2013-02-16 06:02:00,13.0,9.0,30.03,South,188,1.0,3.0,84,0.00,,,0.00,,2013-02-16 11:02:00,
2013-02-16 06:11:00,13.0,9.0,30.03,South,188,1.0,3.0,84,0.00,,,0.00,,2013-02-16 11:11:00,
2013-02-16 06:22:00,13.0,9.0,30.03,South,188,1.0,3.0,84,0.00,,,0.00,,2013-02-16 11:22:00,
2013-02-16 06:32:00,13.0,9.0,30.03,South,188,0.0,3.0,85,0.00,,,0.00,,2013-02-16 11:32:00,
2013-02-16 06:42:00,13.0,9.0,30.03,South,188,0.0,3.0,85,0.00,,,0.00,,2013-02-16 11:42:00,
2013-02-16 06:52:00,13.0,9.0,30.03,South,188,1.0,3.0,85,0.00,,,0.00,,2013-02-16 11:52:00,
2013-02-16 07:02:00,13.0,9.0,30.03,South,188,1.0,2.0,85,0.00,,,0.00,,2013-02-16 12:02:00,
2013-02-16 07:12:00,13.0,9.0,30.03,South,188,1.0,2.0,85,0.00,,,0.00,,2013-02-16 12:12:00,
2013-02-16 07:22:00,12.0,8.0,30.03,South,188,2.0,3.0,85,0.00,,,0.00,,2013-02-16 12:22:00,
2013-02-16 07:32:00,13.0,10.0,30.03,South,180,2.0,4.0,86,0.00,,,0.00,,2013-02-16 12:32:00,
2013-02-16 07:42:00,13.0,10.0,30.03,South,180,2.0,4.0,86,0.00,,,0.00,,2013-02-16 12:42:00,
2013-02-16 07:52:00,13.0,10.0,30.03,South,169,3.0,4.0,86,0.00,,,0.00,,2013-02-16 12:52:00,
2013-02-16 08:02:00,13.0,10.0,30.03,SSE,166,1.0,4.0,86,0.00,,,0.00,,2013-02-16 13:02:00,
2013-02-16 08:12:00,13.0,10.0,30.03,SSW,205,4.0,4.0,86,0.00,,,0.00,,2013-02-16 13:12:00,
2013-02-16 08:21:00,13.0,10.0,30.03,SSW,205,4.0,4.0,86,0.00,,,0.00,,2013-02-16 13:21:00,
2013-02-16 08:32:00,13.0,10.0,30.03,SSW,205,1.0,4.0,86,0.00,,,0.00,,2013-02-16 13:32:00,
2013-02-16 08:41:00,13.0,10.0,30.03,SSW,205,1.0,4.0,86,0.00,,,0.00,,2013-02-16 13:41:00,
2013-02-16 08:52:00,13.0,9.0,30.04,NE,54,0.0,3.0,85,0.00,,,0.00,,2013-02-16 13:52:00,
2013-02-16 09:01:00,14.0,10.0,30.05,NE,54,1.0,3.0,85,0.00,,,0.00,,2013-02-16 14:01:00,
2013-02-16 09:11:00,14.0,10.0,30.05,NE,54,1.0,3.0,85,0.00,,,0.00,,2013-02-16 14:11:00,
2013-02-16 09:21:00,14.0,11.0,30.05,NE,54,0.0,3.0,86,0.00,,,0.00,,2013-02-16 14:21:00,
2013-02-16 09:32:00,14.0,10.0,30.05,NE,54,1.0,3.0,84,0.00,,,0.00,,2013-02-16 14:32:00,
2013-02-16 09:42:00,14.0,10.0,30.05,NE,54,1.0,3.0,84,0.00,,,0.00,,2013-02-16 14:42:00,
2013-02-16 09:52:00,14.0,10.0,30.05,NE,54,1.0,3.0,83,0.00,,,0.00,,2013-02-16 14:52:00,
2013-02-16 10:02:00,15.0,11.0,30.05,NE,54,2.0,3.0,82,0.00,,,0.00,,2013-02-16 15:02:00,
2013-02-16 10:11:00,15.0,11.0,30.05,NE,54,2.0,3.0,82,0.00,,,0.00,,2013-02-16 15:11:00,
2013-02-16 10:22:00,15.0,10.0,30.05,NE,54,3.0,4.0,81,0.00,,,0.00,,2013-02-16 15:22:00,
2013-02-16 10:32:00,15.0,11.0,30.05,NE,46,4.0,5.0,82,0.00,,,0.00,,2013-02-16 15:32:00,
2013-02-16 10:42:00,15.0,11.0,30.05,NE,46,4.0,5.0,82,0.00,,,0.00,,2013-02-16 15:42:00,
2013-02-16 10:52:00,15.0,10.0,30.05,NE,46,4.0,5.0,81,0.00,,,0.00,,2013-02-16 15:52:00,
2013-02-16 11:01:00,15.0,10.0,30.05,NE,45,2.0,4.0,79,0.00,,,0.00,,2013-02-16 16:01:00,
2013-02-16 11:11:00,15.0,10.0,30.05,NE,45,2.0,4.0,79,0.00,,,0.00,,2013-02-16 16:11:00,
2013-02-16 11:21:00,16.0,10.0,30.05,NE,45,3.0,6.0,76,0.00,,,0.00,,2013-02-16 16:21:00,
2013-02-16 11:32:00,16.0,9.0,30.05,NE,39,3.0,6.0,75,0.00,,,0.00,,2013-02-16 16:32:00,
2013-02-16 11:42:00,16.0,9.0,30.05,NE,39,3.0,6.0,75,0.00,,,0.00,,2013-02-16 16:42:00,
2013-02-16 11:52:00,17.0,10.0,30.05,North,1,3.0,6.0,72,0.00,,,0.00,,2013-02-16 16:52:00,
2013-02-16 12:01:00,18.0,10.0,30.05,WNW,303,3.0,6.0,69,0.00,,,0.00,,2013-02-16 17:01:00,
2013-02-16 12:11:00,18.0,10.0,30.05,WNW,303,3.0,6.0,69,0.00,,,0.00,,2013-02-16 17:11:00,
2013-02-16 12:22:00,17.0,8.0,30.05,North,356,3.0,6.0,66,0.01,,,0.01,,2013-02-16 17:22:00,
2013-02-16 12:32:00,17.0,8.0,30.05,North,355,3.0,5.0,66,0.01,,,0.01,,2013-02-16 17:32:00,
2013-02-16 12:42:00,17.0,8.0,30.05,North,355,3.0,5.0,66,0.01,,,0.01,,2013-02-16 17:42:00,
2013-02-16 12:52:00,17.0,7.0,30.05,North,355,3.0,4.0,65,0.01,,,0.01,,2013-02-16 17:52:00,
2013-02-16 13:00:00,18.0,6.0,30.04,North,1,4.0,6.0,60,0.02,,,0.02,,2013-02-16 18:00:00,
2013-02-16 13:02:00,19.0,8.0,30.04,NW,311,4.0,6.0,62,0.02,,,0.02,,2013-02-16 18:02:00,
2013-02-16 13:11:00,18.0,6.0,30.04,North,1,4.0,6.0,60,0.02,,,0.02,,2013-02-16 18:11:00,
2013-02-16 13:21:00,18.0,6.0,30.04,North,1,4.0,6.0,60,0.02,,,0.02,,2013-02-16 18:21:00,
2013-02-16 13:33:00,18.0,6.0,30.04,North,1,4.0,6.0,60,0.02,,,0.02,,2013-02-16 18:33:00,
2013-02-16 13:42:00,18.0,6.0,30.04,North,1,4.0,6.0,60,0.02,,,0.02,,2013-02-16 18:42:00,
2013-02-16 13:52:00,18.0,6.0,30.04,North,1,4.0,6.0,60,0.02,,,0.02,,2013-02-16 18:52:00,
2013-02-16 17:22:00,15.0,7.0,30.08,North,3,5.0,7.0,70,0.00,,,0.05,,2013-02-16 22:22:00,
2013-02-16 17:32:00,15.0,7.0,30.08,NNE,30,6.0,8.0,70,0.00,,,0.05,,2013-02-16 22:32:00,
2013-02-16 17:42:00,15.0,7.0,30.08,NNE,30,6.0,8.0,70,0.00,,,0.05,,2013-02-16 22:42:00,
2013-02-16 17:52:00,16.0,7.0,30.08,NNE,29,7.0,7.0,68,0.00,,,0.05,,2013-02-16 22:52:00,
2013-02-16 18:02:00,15.0,5.0,30.09,North,8,6.0,9.0,65,0.00,,,0.05,,2013-02-16 23:02:00,
2013-02-16 18:11:00,14.0,4.0,30.09,North,6,6.0,8.0,63,0.00,,,0.05,,2013-02-16 23:11:00,
2013-02-16 18:21:00,14.0,4.0,30.09,North,6,6.0,8.0,63,0.00,,,0.05,,2013-02-16 23:21:00,
2013-02-16 18:32:00,13.0,3.0,30.10,NNW,347,10.0,12.0,64,0.00,,,0.05,,2013-02-16 23:32:00,
2013-02-16 18:42:00,13.0,3.0,30.10,NNW,347,10.0,12.0,64,0.00,,,0.05,,2013-02-16 23:42:00,
2013-02-16 18:52:00,13.0,3.0,30.11,North,356,5.0,7.0,65,0.00,,,0.05,,2013-02-16 23:52:00,
2013-02-16 19:02:00,12.0,2.0,30.11,North,359,4.0,6.0,64,0.00,,,0.05,,2013-02-17 00:02:00,
2013-02-16 19:12:00,12.0,2.0,30.11,North,359,4.0,6.0,64,0.00,,,0.05,,2013-02-17 00:12:00,
2013-02-16 19:22:00,11.0,1.0,30.11,North,8,4.0,5.0,64,0.00,,,0.05,,2013-02-17 00:22:00,
2013-02-16 19:32:00,11.0,2.0,30.12,NE,34,4.0,5.0,65,0.00,,,0.05,,2013-02-17 00:32:00,
2013-02-16 19:42:00,11.0,2.0,30.12,NE,34,4.0,5.0,65,0.00,,,0.05,,2013-02-17 00:42:00,
2013-02-16 19:52:00,10.0,1.0,30.12,NE,34,2.0,5.0,65,0.00,,,0.05,,2013-02-17 00:52:00,
2013-02-16 20:01:00,9.0,0.0,30.12,NE,34,0.0,1.0,66,0.00,,,0.05,,2013-02-17 01:01:00,
2013-02-16 20:11:00,9.0,0.0,30.12,NE,34,0.0,1.0,66,0.00,,,0.05,,2013-02-17 01:11:00,
2013-02-16 20:21:00,7.0,-2.0,30.12,NE,34,0.0,0.0,67,0.00,,,0.05,,2013-02-17 01:21:00,
2013-02-16 20:31:00,7.0,-1.0,30.13,NE,34,0.0,2.0,70,0.00,,,0.05,,2013-02-17 01:31:00,
2013-02-16 20:41:00,7.0,-1.0,30.13,NE,34,0.0,2.0,70,0.00,,,0.05,,2013-02-17 01:41:00,
2013-02-16 20:52:00,6.0,-1.0,30.13,NE,34,0.0,1.0,71,0.00,,,0.05,,2013-02-17 01:52:00,
2013-02-16 21:01:00,6.0,-1.0,30.13,NE,34,0.0,0.0,72,0.00,,,0.05,,2013-02-17 02:01:00,
2013-02-16 21:11:00,6.0,-1.0,30.13,NE,34,0.0,0.0,72,0.00,,,0.05,,2013-02-17 02:11:00,
2013-02-16 21:21:00,6.0,0.0,30.13,NE,34,0.0,0.0,74,0.00,,,0.05,,2013-02-17 02:21:00,
2013-02-16 21:31:00,5.0,-1.0,30.14,NE,34,0.0,0.0,74,0.00,,,0.05,,2013-02-17 02:31:00,
2013-02-16 21:41:00,5.0,-1.0,30.14,NE,34,0.0,0.0,74,0.00,,,0.05,,2013-02-17 02:41:00,
2013-02-16 21:52:00,4.0,-2.0,30.14,NE,34,0.0,0.0,76,0.00,,,0.05,,2013-02-17 02:52:00,
2013-02-16 22:02:00,4.0,-2.0,30.14,NE,34,0.0,0.0,76,0.00,,,0.05,,2013-02-17 03:02:00,
2013-02-16 22:11:00,4.0,-2.0,30.14,NE,34,0.0,0.0,76,0.00,,,0.05,,2013-02-17 03:11:00,
2013-02-16 22:21:00,2.0,-4.0,30.14,NE,34,0.0,0.0,76,0.00,,,0.05,,2013-02-17 03:21:00,
2013-02-16 22:32:00,2.0,-4.0,30.14,NE,34,0.0,2.0,77,0.00,,,0.05,,2013-02-17 03:32:00,
2013-02-16 22:42:00,2.0,-4.0,30.14,NE,34,0.0,2.0,77,0.00,,,0.05,,2013-02-17 03:42:00,
2013-02-16 22:52:00,3.0,-2.0,30.14,NE,34,0.0,2.0,79,0.00,,,0.05,,2013-02-17 03:52:00,
2013-02-16 23:01:00,2.0,-4.0,30.14,NE,34,0.0,0.0,77,0.00,,,0.05,,2013-02-17 04:01:00,
2013-02-16 23:11:00,1.0,-4.0,30.14,NE,34,0.0,0.0,77,0.00,,,0.05,,2013-02-17 04:11:00,
2013-02-16 23:21:00,1.0,-4.0,30.14,NE,34,0.0,0.0,77,0.00,,,0.05,,2013-02-17 04:21:00,
2013-02-16 23:31:00,1.0,-4.0,30.14,NE,34,0.0,0.0,79,0.00,,,0.05,,2013-02-17 04:31:00,
2013-02-16 23:41:00,1.0,-4.0,30.14,NE,34,0.0,0.0,79,0.00,,,0.05,,2013-02-17 04:41:00,
2013-02-16 23:52:00,2.0,-3.0,30.14,NE,34,0.0,0.0,80,0.00,,,0.05,,2013-02-17 04:52:00,